Homer, AK

2:28 AM AKST on February 22, 2017 (GMT -0900)
Homer

Weather History for PAHO - November, 2012

Change the Weather History Date:

Thursday, November 22, 2012

  Actual Average Record
Temperature  
Mean Temperature 19 °F -  
Max Temperature 26 °F 34 °F 49 °F (1952)
Min Temperature 12 °F 24 °F 3 °F (2006)
Degree Days  
Heating Degree Days 46    
Moisture  
Dew Point 10 °F    
Average Humidity 67    
Maximum Humidity 81    
Minimum Humidity 57    
Precipitation  
Precipitation 0.00 in - - ()
Sea Level Pressure  
Sea Level Pressure 29.62 in    
Wind  
Wind Speed 5 mph (NE)    
Max Wind Speed 9 mph    
Max Gust Speed -    
Visibility 10 miles    
Events      
Averages and records for this station are not official NWS values.
T = Trace of Precipitation, MM = Missing Value Source: NWS Daily Summary

Daily Weather History Graph

Daily Weather History Graph

Search for Another Location

Airport or City:

Trip Planner

Search our weather history database for the weather conditions in past years. The results will help you decide how hot, cold, wet, or windy it might be!

Date:

Astronomy

Nov. 22, 2012 Rise Set
Actual Time 9:20 AM AKST 4:23 PM AKST
Civil Twilight 8:29 AM AKST 5:14 PM AKST
Nautical Twilight 7:36 AM AKST 6:07 PM AKST
Astronomical Twilight 6:47 AM AKST 6:56 PM AKST
Moon 2:22 PM AKST 2:35 AM AKST
Length of Visible Light 8h 44m
Length of Day
7h 03m
Waxing Gibbous, 72% of the Moon is Illuminated
Nov 22
Waxing Gibbous
Nov 28
Full
Dec 6
Last Quarter
Dec 12
New
Dec 19
First Quarter

Hourly Weather History & Observations

Time (AKST) Temp. Windchill Dew Point Humidity Pressure Visibility Wind Dir Wind Speed Gust Speed Precip Events Conditions
12:53 AM 18.0 °F 11.1 °F 9.0 °F 68% 29.75 in 10.0 mi NE 4.6 mph - N/A   Clear
1:53 AM 16.0 °F 7.4 °F 7.0 °F 68% 29.76 in 10.0 mi ENE 5.8 mph - N/A   Clear
3:53 AM 17.1 °F 11.7 °F 8.1 °F 68% 29.77 in 10.0 mi NE 3.5 mph - N/A   Clear
4:53 AM 15.1 °F 7.7 °F 9.0 °F 77% 29.76 in 10.0 mi NNE 4.6 mph - N/A   Clear
5:53 AM 15.1 °F 9.4 °F 9.0 °F 77% 29.75 in 10.0 mi NNE 3.5 mph - N/A   Clear
6:53 AM 15.1 °F 6.4 °F 9.0 °F 77% 29.75 in 10.0 mi NE 5.8 mph - N/A   Mostly Cloudy
7:53 AM 16.0 °F 10.4 °F 10.0 °F 77% 29.73 in 10.0 mi NE 3.5 mph - N/A   Overcast
8:53 AM 14.0 °F 8.2 °F 9.0 °F 80% 29.73 in 10.0 mi NNE 3.5 mph - N/A   Clear
9:53 AM 12.9 °F 5.2 °F 8.1 °F 81% 29.72 in 10.0 mi North 4.6 mph - N/A   Clear
10:53 AM 19.9 °F 12.1 °F 12.0 °F 71% 29.69 in 10.0 mi NE 5.8 mph - N/A   Clear
11:53 AM 23.0 °F 18.4 °F 14.0 °F 68% 29.67 in 10.0 mi ENE 3.5 mph - N/A   Clear
12:53 PM 24.1 °F 16.0 °F 14.0 °F 65% 29.64 in 10.0 mi ENE 6.9 mph - N/A   Clear
1:53 PM 25.0 °F 20.7 °F 12.9 °F 60% 29.61 in 10.0 mi ENE 3.5 mph - N/A   Clear
2:53 PM 26.1 °F 20.5 °F 12.9 °F 58% 29.58 in 10.0 mi NE 4.6 mph - N/A   Clear
3:53 PM 23.0 °F 14.7 °F 10.9 °F 60% 29.55 in 10.0 mi NNE 6.9 mph - N/A   Clear
4:53 PM 21.9 °F 17.2 °F 9.0 °F 58% 29.53 in 10.0 mi North 3.5 mph - N/A   Clear
5:53 PM 21.0 °F 13.4 °F 8.1 °F 57% 29.51 in 10.0 mi NE 5.8 mph - N/A   Clear
6:53 PM 19.9 °F 11.1 °F 7.0 °F 57% 29.50 in 10.0 mi NE 6.9 mph - N/A   Clear
7:53 PM 19.0 °F 8.2 °F 7.0 °F 59% 29.48 in 10.0 mi NNE 9.2 mph - N/A   Scattered Clouds
8:53 PM 19.9 °F 12.1 °F 8.1 °F 60% 29.47 in 10.0 mi NNE 5.8 mph - N/A   Scattered Clouds
9:53 PM 16.0 °F 8.8 °F 7.0 °F 68% 29.47 in 10.0 mi NW 4.6 mph - N/A   Clear
10:53 PM 17.1 °F 11.7 °F 8.1 °F 68% 29.47 in 10.0 mi North 3.5 mph - N/A   Clear
11:53 PM 19.0 °F - 10.0 °F 68% 29.47 in 10.0 mi Calm Calm - N/A   Clear